Wind_Speed
91 91 91 91 91 91 90 90 89 89 89 89 88 89 90 91 91 92 92 93 93 94 95 96 97 98 98 97 98 98 98 97 97 96 95 95 96 98 99 101 102 103 105 107 109 110 111 112 112 112 112 112 113 113 114 115 117 118 119 121 122 123 124 125 126 127 129 131 132 133 134 135 136 137 140 143 144 145 145 145 145 145 146 146 147
92 93 93 93 94 94 94 93 92 92 92 91 91 92 93 94 94 94 95 95 96 97 97 98 99 100 100 100 100 101 101 100 99 99 99 100 101 102 102 103 105 106 108 109 111 112 113 113 112 112 112 113 113 114 116 118 119 120 121 122 123 124 125 126 127 128 130 131 133 134 135 136 137 139 142 143 144 144 144 144 144 145 146 147 148
94 94 95 95 96 97 97 96 96 95 95 94 94 94 95 96 96 96 97 97 98 99 100 101 102 102 103 103 103 103 103 102 102 103 103 103 103 104 104 106 107 108 110 111 112 113 113 113 112 112 113 114 115 117 118 120 121 122 123 124 124 125 126 127 128 130 131 132 133 135 136 137 139 141 143 143 143 143 142 143 143 144 146 148 150
94 94 95 97 98 99 99 99 99 99 98 98 97 97 97 98 98 98 99 100 101 102 102 103 103 104 105 105 105 105 105 106 105 105 104 104 105 106 107 108 109 110 112 113 113 113 113 112 112 113 115 116 117 119 120 121 122 123 124 125 126 126 127 128 130 131 132 133 134 136 137 139 140 142 142 142 142 142 141 142 143 144 147 149 151
94 94 94 96 97 99 100 101 102 102 102 101 100 100 101 101 101 101 102 103 103 104 104 105 105 106 107 107 108 107 107 107 107 106 106 107 108 108 109 110 111 112 113 113 113 113 113 113 114 116 117 118 119 121 122 122 123 124 125 126 126 127 128 130 131 132 133 134 135 137 139 141 142 142 142 141 141 141 141 141 143 145 148 151 152
95 95 95 95 96 98 100 102 103 104 104 104 104 103 104 104 104 105 105 106 107 107 107 107 108 109 109 110 110 109 109 109 109 108 109 110 110 111 111 112 112 113 113 113 113 114 115 116 117 118 119 120 121 122 123 123 124 125 126 127 127 128 130 131 132 133 135 136 137 139 141 142 142 142 142 141 140 140 139 140 142 146 149 151 153
95 96 96 96 97 98 99 101 103 104 105 106 106 106 106 107 107 107 108 108 109 110 110 110 111 111 112 112 112 112 111 111 111 111 112 112 112 113 113 113 113 113 113 114 115 116 118 119 119 120 121 122 122 123 123 124 125 126 126 127 128 130 132 133 134 135 136 137 139 140 142 142 142 142 142 142 141 140 140 141 143 146 148 151 153
97 97 97 97 98 99 99 100 102 104 105 107 108 108 109 109 110 110 110 111 111 112 112 112 113 114 114 113 114 114 114 114 114 114 114 114 114 114 114 114 114 114 115 116 118 119 120 120 121 121 122 122 123 124 124 125 125 126 127 129 131 132 134 135 135 137 138 139 140 141 141 142 142 142 142 141 141 141 142 143 144 146 148 151 153
100 100 99 99 99 100 100 101 101 103 104 106 108 109 111 112 112 113 113 114 114 114 115 115 115 116 116 115 116 116 116 115 115 115 115 115 115 115 115 115 115 116 118 119 120 120 121 121 121 122 123 123 124 124 124 125 126 127 129 131 133 134 135 136 137 138 139 140 140 140 141 142 142 142 141 141 141 142 144 145 146 148 149 151 152
103 103 103 102 102 102 102 102 103 103 104 105 107 108 110 112 114 115 116 116 117 117 117 117 117 117 117 117 117 117 117 117 117 117 117 116 116 116 116 117 118 119 120 120 121 121 121 122 122 123 123 124 124 124 125 126 127 129 131 133 135 136 136 137 138 139 139 139 140 140 141 141 142 141 141 141 142 143 145 147 148 150 150 150 150
107 106 106 106 106 105 105 104 104 104 105 105 106 107 108 110 113 115 116 118 119 119 119 120 119 119 119 118 118 118 118 118 118 117 117 116 116 117 118 119 120 120 120 121 121 122 122 122 123 123 123 124 124 125 126 128 130 132 133 135 136 136 137 138 139 139 139 139 139 140 141 141 141 141 141 142 143 145 147 149 150 150 151 150 148
109 109 109 108 108 108 107 106 106 106 106 106 106 106 107 109 111 113 115 117 119 120 121 122 122 122 121 121 120 120 119 118 117 117 117 118 118 119 120 120 120 120 121 121 122 122 122 122 122 123 123 124 125 126 128 130 132 134 135 135 136 137 137 138 138 138 138 139 140 141 141 141 140 141 142 143 144 146 148 150 150 150 150 149 148
111 111 111 111 111 110 110 109 108 108 107 107 107 107 107 108 110 111 113 115 117 119 121 122 123 123 123 122 122 121 120 119 119 119 119 120 120 121 121 120 120 120 120 121 122 122 122 122 121 122 123 124 126 128 131 133 134 135 135 135 136 137 137 138 138 138 138 139 140 141 141 140 140 141 142 144 145 147 149 150 150 149 148 147 146
114 114 114 114 114 114 113 112 111 111 110 110 109 109 109 109 110 111 112 114 115 117 118 120 121 122 122 122 121 120 120 120 120 120 120 120 120 120 120 119 119 120 120 121 121 121 121 121 121 122 124 126 129 131 133 134 134 135 135 135 136 137 137 137 137 138 138 139 140 140 140 140 141 142 143 145 147 148 148 148 147 146 145 144 145
117 117 117 117 117 116 116 115 114 113 112 112 111 110 110 110 110 111 112 113 114 115 117 118 118 119 119 119 119 119 119 119 119 119 119 119 119 118 119 119 119 120 120 120 120 120 120 121 122 124 126 128 131 132 133 134 134 134 135 135 136 137 137 137 137 137 138 139 139 139 140 141 142 143 145 146 147 148 147 146 145 143 142 142 143
118 119 119 119 119 118 118 117 116 115 114 113 112 111 111 111 111 111 111 113 114 115 116 117 117 117 117 117 117 117 117 117 117 117 117 117 118 118 119 119 119 119 119 119 119 120 121 122 124 126 128 129 131 132 133 133 134 134 135 136 137 137 137 137 137 137 138 138 139 139 140 141 143 144 145 146 147 146 145 143 142 141 140 140 141
118 118 119 119 119 119 119 118 118 117 115 114 113 112 111 111 111 111 112 113 114 115 116 117 117 117 117 117 117 117 117 117 116 117 117 117 118 118 118 118 118 118 119 119 120 121 123 124 126 127 128 129 130 132 133 133 134 134 135 136 136 136 136 136 136 137 137 138 139 140 141 142 143 144 145 145 144 143 141 140 139 139 139 138 138
116 116 116 117 117 118 118 118 117 116 115 114 113 112 111 111 111 111 112 113 114 115 116 117 117 117 117 117 117 117 116 117 117 117 117 117 117 117 118 118 118 118 119 120 121 123 124 125 126 127 128 130 131 133 133 133 133 134 134 134 134 134 135 136 136 137 137 138 139 140 141 142 143 143 143 142 141 141 139 138 138 138 137 136 135
112 112 113 113 114 114 115 115 115 114 113 112 111 111 110 110 111 111 112 113 114 115 116 117 117 117 117 117 117 117 117 117 117 117 118 118 118 118 118 119 119 119 120 122 123 124 125 126 127 129 130 131 132 132 132 132 132 132 132 132 133 133 134 135 136 137 138 138 139 140 141 141 141 141 140 139 139 139 138 137 137 136 136 135 134
105 106 107 108 109 110 110 110 110 110 110 109 108 108 109 110 111 112 113 113 114 115 116 117 117 117 118 118 118 118 118 118 119 119 119 119 119 119 119 119 120 120 121 122 123 125 126 127 129 129 130 131 131 131 130 129 129 129 130 130 131 133 134 135 136 137 138 138 139 139 139 139 138 137 137 136 137 137 136 136 135 135 134 134 134
97 99 100 102 103 104 105 105 105 105 105 105 105 105 106 107 108 109 111 112 113 114 115 116 117 117 118 118 118 118 119 119 120 120 120 120 120 120 120 120 120 121 122 123 125 126 127 127 128 128 129 129 128 127 127 126 126 127 128 130 131 133 134 135 136 137 137 137 137 137 136 135 134 134 134 134 134 134 134 134 133 134 134 134 135
91 91 93 94 95 96 97 98 98 99 99 99 100 101 101 102 103 104 106 108 109 111 112 113 114 115 116 117 117 118 119 119 120 120 120 120 120 120 120 120 121 122 123 124 124 125 125 125 126 126 126 125 124 124 124 125 126 127 128 130 131 133 134 134 135 135 135 135 133 132 131 131 131 131 131 131 132 132 132 132 133 134 135 136 136
84 85 86 86 87 88 88 89 90 91 91 92 93 94 96 97 98 99 100 102 103 105 106 108 109 110 112 113 115 116 117 117 118 118 118 119 119 119 120 120 121 122 122 122 122 122 123 123 122 122 122 122 122 123 124 125 126 127 128 130 131 132 132 132 133 132 131 130 129 128 128 129 129 128 128 129 130 130 131 132 133 134 136 137 138
78 79 79 80 80 80 80 81 82 83 84 85 86 88 89 91 92 94 96 97 98 100 102 103 105 106 107 109 110 112 113 114 115 115 116 116 117 117 117 118 118 119 119 119 119 118 118 118 119 119 120 121 122 123 124 125 126 127 128 129 129 130 129 129 128 127 126 125 125 125 126 126 126 126 127 127 129 130 131 133 134 136 137 139 140
74 74 75 75 75 75 75 76 77 78 79 80 81 83 84 86 87 89 91 92 94 96 98 99 101 102 103 105 106 107 108 109 110 110 111 111 112 112 113 113 113 114 114 114 115 115 116 117 118 119 120 122 123 124 125 126 126 126 126 126 126 126 125 124 123 123 122 122 122 122 123 123 124 125 126 127 129 130 132 134 135 137 138 140 141
71 71 72 73 73 73 73 73 74 76 77 78 79 80 82 83 84 86 87 89 90 92 93 95 96 98 99 100 102 103 103 104 105 106 107 107 108 108 109 109 109 110 112 113 114 115 116 117 119 120 121 123 124 125 125 125 124 123 122 122 121 121 120 119 119 119 120 120 120 120 121 123 124 126 127 128 130 132 133 135 137 138 140 141 142
69 69 70 71 72 72 72 73 74 76 77 78 79 80 81 82 83 85 86 87 88 89 91 92 93 94 96 97 98 99 100 101 102 104 105 105 106 106 107 108 109 110 112 113 115 116 117 118 120 121 122 122 123 123 122 121 119 118 117 117 117 116 116 116 116 117 118 118 119 120 122 124 125 127 128 130 132 133 135 137 138 139 141 142 142
68 68 69 70 71 71 72 73 74 76 78 79 80 82 82 83 84 85 86 87 87 88 89 90 91 93 94 95 96 97 99 100 102 103 104 104 105 106 107 109 110 112 113 115 116 117 118 119 119 119 119 119 119 118 117 115 114 114 113 113 113 113 114 114 114 115 117 118 120 121 123 125 126 128 130 132 134 135 137 138 139 141 142 143 143
67 67 68 69 70 71 72 73 75 76 78 80 82 83 85 86 86 87 88 88 88 89 90 91 92 93 95 96 97 98 100 101 103 104 105 106 107 108 109 110 111 113 114 115 115 115 115 115 115 114 114 113 113 112 112 112 111 111 110 110 110 111 112 113 114 116 118 119 121 123 124 126 128 130 132 133 135 137 138 139 141 142 143 144 145
66 66 67 68 69 70 72 73 75 77 78 80 82 84 86 87 89 90 91 91 92 92 93 94 96 97 97 98 100 101 102 103 105 106 107 107 108 109 110 111 111 111 112 111 111 110 109 109 109 109 109 109 109 109 109 109 109 108 108 108 108 110 112 113 116 118 119 121 123 124 126 128 129 131 133 135 136 138 139 141 142 143 144 145 146
66 66 66 67 68 69 71 73 75 77 78 80 82 83 85 87 89 90 92 93 94 95 96 98 99 100 100 101 102 103 104 105 106 106 107 107 107 107 107 107 107 106 106 105 104 104 104 104 105 105 106 107 107 107 107 107 106 107 107 108 109 111 113 115 117 119 121 123 125 126 128 130 131 133 134 136 138 139 140 142 143 144 145 146 147
64 65 65 66 67 69 70 72 74 75 77 79 80 82 83 85 86 88 89 91 92 93 95 96 97 98 99 99 100 101 101 102 103 103 103 102 102 101 101 100 100 99 99 99 100 101 102 103 103 104 104 104 104 104 105 105 106 107 109 110 112 114 115 117 119 121 123 125 127 129 130 132 133 134 136 137 139 140 141 143 144 144 146 147 148
63 63 64 65 66 68 69 71 72 74 75 77 78 80 81 82 84 85 86 87 88 90 91 92 93 93 94 95 95 96 96 97 97 97 96 96 95 95 95 95 95 95 96 98 99 100 101 101 101 102 102 102 102 103 105 106 107 109 111 112 114 116 118 120 122 124 125 127 129 130 132 133 134 135 137 138 140 141 142 143 144 145 147 148 149
63 63 64 65 66 67 68 69 71 72 74 75 76 77 79 80 81 82 83 84 85 86 87 88 88 89 90 90 91 91 91 91 91 91 91 91 91 91 92 92 93 95 96 96 97 98 98 98 99 99 100 101 102 104 106 107 109 111 112 114 116 118 120 122 124 126 128 129 130 132 133 134 135 137 138 139 140 142 143 144 146 147 148 149 150
64 65 65 66 66 67 68 69 70 71 73 74 75 76 77 78 79 80 81 82 83 84 85 85 86 86 87 87 88 88 88 88 88 88 89 89 90 91 91 91 92 93 94 93 94 95 96 97 98 100 101 102 104 106 107 109 111 113 114 116 118 120 122 124 126 128 129 131 132 133 134 135 137 138 138 139 141 142 144 146 147 149 150 151 151
65 66 67 68 68 69 69 70 71 72 73 74 75 76 77 78 79 80 81 81 82 83 83 84 84 85 85 86 87 87 86 86 86 87 87 89 90 90 90 90 91 92 92 92 93 95 97 99 101 102 103 105 106 108 110 111 113 115 117 119 121 123 124 126 128 129 131 132 133 134 136 137 138 139 139 140 142 144 145 147 149 150 151 151 151
65 66 67 68 69 70 71 72 72 73 73 74 74 75 76 77 77 78 79 80 81 81 82 82 83 84 84 85 86 86 86 85 85 86 87 88 89 89 89 90 91 92 93 94 96 98 100 101 103 105 107 108 109 111 113 115 117 118 120 122 123 125 127 128 130 131 132 134 135 136 137 138 139 140 141 142 144 145 147 149 150 151 152 152 152
65 66 67 68 69 70 71 72 73 73 74 74 74 75 75 76 77 78 78 79 80 80 81 81 82 83 84 84 85 85 85 85 85 86 87 89 90 91 91 93 94 95 97 98 99 101 102 104 106 108 110 111 113 114 116 118 119 121 123 125 126 128 129 131 132 133 134 136 137 137 138 139 141 142 143 144 146 147 149 150 151 151 152 152 152
69 69 69 69 70 71 71 72 73 74 74 75 76 76 77 77 78 78 79 79 79 80 80 81 81 82 83 84 84 84 85 85 87 89 91 93 94 95 95 96 97 99 100 102 103 104 106 108 110 112 114 115 116 117 119 121 122 124 126 128 129 131 132 133 134 135 136 138 139 139 141 142 143 144 145 146 148 149 150 151 152 152 153 153 152
74 74 73 73 72 72 73 73 74 75 76 76 77 77 77 77 77 77 77 78 78 79 79 79 80 81 82 83 84 86 87 89 90 92 94 96 97 98 99 99 100 102 104 105 107 108 110 112 114 116 117 118 119 120 122 124 126 128 129 131 132 133 134 135 136 137 138 140 141 142 143 145 146 147 148 149 150 151 152 153 153 153 153 153 152
78 79 79 78 77 76 75 75 75 76 76 77 77 78 77 78 78 78 78 79 80 80 81 81 82 83 85 86 88 89 91 93 94 96 97 98 99 100 101 102 104 105 107 109 111 112 114 116 117 119 121 122 123 124 126 127 129 131 132 133 134 136 137 138 139 140 141 142 143 144 146 147 148 149 150 151 152 153 153 154 154 154 153 152 151
81 81 82 83 83 82 80 79 79 79 79 79 79 80 80 81 82 82 83 83 84 85 85 86 87 89 90 92 93 94 96 97 98 99 100 101 102 103 104 105 107 108 111 113 114 116 118 119 121 123 125 126 127 128 129 131 132 133 135 136 137 138 139 140 142 143 144 145 146 147 148 149 150 151 152 153 154 154 154 154 154 154 152 151 149
86 85 85 85 86 87 86 85 84 84 83 83 83 83 83 84 85 86 86 87 87 88 89 90 91 92 94 95 96 97 98 99 100 101 102 103 104 105 106 108 110 112 114 116 118 120 121 123 125 127 128 129 130 131 132 133 135 136 137 139 140 141 142 143 145 146 147 147 148 150 151 152 153 153 154 155 155 155 155 154 154 153 151 149 146
92 92 91 90 89 90 91 91 90 89 88 87 87 87 87 87 87 88 88 89 89 90 91 92 93 93 94 95 96 97 98 99 100 102 103 105 106 108 110 111 113 115 117 119 121 123 124 126 127 129 131 132 133 134 135 136 138 139 140 141 142 144 145 146 147 148 149 150 151 152 153 154 155 155 156 156 156 155 155 154 153 151 148 145 141
98 98 98 96 94 92 93 94 95 94 93 91 90 90 90 90 90 90 90 91 92 92 93 94 95 95 96 96 97 99 100 101 103 105 106 108 110 112 113 115 116 118 119 121 123 125 126 128 130 132 133 134 135 137 138 139 141 142 143 144 145 146 148 149 150 151 152 153 154 155 156 156 157 157 157 157 156 155 154 152 150 147 144 140 135
103 104 104 103 101 98 95 95 96 97 97 96 94 93 92 92 92 92 93 93 94 95 95 96 96 97 98 99 101 102 104 105 106 108 110 111 113 115 116 118 119 120 122 123 125 127 129 131 133 134 136 137 138 139 141 142 143 144 145 147 148 149 151 152 153 154 155 156 157 157 158 158 158 158 157 156 155 154 151 149 145 142 138 134 131
113 113 112 109 106 102 98 95 95 97 98 98 97 95 94 94 94 94 94 95 95 96 97 97 98 100 101 103 104 106 107 109 110 111 113 115 116 118 119 121 122 124 125 126 128 130 132 134 136 138 139 140 141 142 144 145 146 147 148 149 151 152 153 155 155 156 157 158 159 159 159 159 159 158 157 155 153 150 147 143 139 136 133 130 127
123 120 116 112 108 103 98 95 95 96 97 98 98 97 96 96 96 96 96 97 98 98 99 101 102 104 105 107 108 110 111 112 114 115 116 118 119 121 123 124 126 127 128 130 132 134 136 137 139 141 142 143 144 146 147 148 149 150 151 152 154 155 156 157 158 159 159 160 160 160 160 159 158 156 154 151 148 144 140 137 134 131 128 126 124
126 121 116 113 110 104 99 97 96 96 97 98 99 99 99 98 98 99 99 100 101 102 103 105 106 108 109 111 112 113 115 116 117 119 120 121 123 124 125 127 129 130 132 134 136 137 139 141 142 144 145 146 147 148 150 151 152 153 154 155 157 158 158 159 160 161 161 161 161 160 159 158 156 153 149 145 141 138 134 132 129 127 125 123 121
123 119 116 114 110 105 101 99 98 98 99 100 100 101 101 101 101 102 102 103 104 105 106 108 109 111 112 114 115 117 118 119 121 122 123 124 126 127 129 131 132 134 136 138 140 141 143 144 146 147 148 149 150 151 152 153 155 156 157 158 159 160 160 161 161 162 161 161 160 158 156 154 151 147 143 139 135 132 130 128 126 123 121 118 115
120 118 116 114 110 105 102 101 100 101 101 102 103 104 104 105 105 105 106 106 107 109 110 111 113 114 116 117 119 120 121 123 124 125 127 128 129 131 133 135 137 138 140 142 143 144 146 147 148 150 151 152 153 154 155 156 157 158 159 160 161 161 162 162 162 161 160 158 156 154 151 147 144 140 136 133 130 128 126 123 121 118 115 112 109
Wind_Direction
266 266 266 267 267 268 268 269 269 269 270 270 271 272 273 273 273 274 275 276 276 277 278 279 281 282 283 284 285 286 287 288 289 289 289 289 289 289 290 290 291 292 293 294 296 297 298 299 300 301 301 302 303 303 303 303 303 304 304 305 306 307 308 309 310 311 311 312 312 312 313 313 314 315 315 316 317 317 317 317 317 317 317 318 318
266 266 267 267 268 269 269 269 270 270 270 270 271 271 272 273 274 274 275 276 277 278 279 280 281 282 283 284 285 286 287 288 288 288 288 288 289 289 290 290 291 292 293 295 296 297 298 299 300 301 301 302 302 302 302 302 303 303 304 305 306 308 308 309 310 310 311 311 311 312 312 313 314 314 315 316 316 316 316 316 316 317 317 317 318
266 267 267 268 268 269 270 270 270 271 271 271 271 271 271 272 273 274 275 276 277 277 278 279 280 281 282 283 284 285 286 287 287 287 288 288 288 289 290 290 291 292 293 294 295 296 297 299 300 300 301 301 301 301 302 302 302 303 304 305 306 307 308 308 309 309 310 310 311 311 312 313 313 314 315 315 316 315 315 315 316 316 316 317 317
266 267 267 268 269 269 270 271 271 271 271 271 271 271 272 272 273 273 274 275 276 277 278 279 280 281 282 283 284 284 285 286 286 287 287 287 288 288 289 290 291 292 293 294 295 296 298 298 299 299 300 300 300 301 301 302 303 304 304 305 306 307 307 308 308 309 309 310 310 311 312 312 313 314 314 315 315 314 315 315 315 316 316 316 317
267 267 267 268 268 269 270 270 271 271 272 272 272 272 272 273 273 273 274 275 275 276 277 278 279 280 281 282 283 283 284 285 285 286 286 287 287 288 289 290 291 292 293 294 295 296 297 297 298 298 299 299 300 300 301 302 303 304 304 305 306 306 306 307 308 308 309 309 310 311 311 312 312 313 314 314 314 314 314 315 315 315 316 316 317
268 268 268 268 268 268 269 270 270 271 272 272 273 273 273 273 273 274 274 274 275 276 276 277 278 279 280 281 282 283 283 284 285 285 286 286 287 288 289 290 291 292 293 294 295 295 296 296 297 297 298 299 299 300 301 302 303 303 304 304 305 305 306 307 307 308 308 309 310 310 311 311 312 312 313 313 313 313 314 314 314 315 315 316 316
268 268 268 268 268 268 268 269 270 270 271 272 272 273 273 274 274 274 274 275 275 276 276 277 278 278 279 280 281 282 283 283 284 285 285 286 287 288 289 290 291 292 293 293 294 294 295 295 296 297 298 298 299 300 301 302 302 303 303 304 304 305 306 306 307 308 308 309 309 310 310 311 311 312 312 312 312 313 313 313 314 314 315 315 316
269 268 268 268 268 268 269 269 269 270 270 271 272 273 273 274 274 275 275 275 276 276 276 277 278 278 279 280 281 282 282 283 284 285 285 286 287 288 289 290 291 292 292 292 293 293 294 295 296 297 297 298 299 300 301 301 302 303 303 303 304 305 305 306 307 307 308 309 309 309 310 310 311 311 311 311 312 312 312 313 313 314 314 314 315
270 270 269 269 269 269 269 270 270 270 270 270 271 272 273 273 274 274 275 275 276 276 277 277 278 278 279 280 280 281 282 283 284 284 285 286 287 288 289 290 290 290 291 292 292 293 294 295 295 296 297 299 299 300 301 301 301 302 302 303 304 304 305 306 306 307 308 308 309 309 309 310 310 310 311 311 311 311 312 313 313 313 314 314 314
270 271 271 271 270 270 270 270 271 271 271 271 271 271 272 272 273 274 274 275 275 276 276 277 277 278 278 279 280 281 281 282 283 284 285 286 287 287 288 288 289 290 291 292 292 293 294 295 296 297 298 299 299 300 300 300 301 301 302 303 303 304 305 305 306 307 307 308 308 308 309 309 309 310 310 310 311 311 312 312 313 313 313 314 314
270 270 271 271 272 272 271 271 271 271 271 271 271 271 271 272 272 273 273 274 274 275 275 276 277 277 278 279 279 280 281 282 283 284 284 285 286 286 287 288 289 290 290 291 292 293 294 295 296 297 298 298 298 299 299 299 300 301 302 303 303 304 304 305 306 306 307 307 307 308 308 309 309 309 309 310 310 311 311 312 312 313 313 314 314
269 270 270 271 271 272 272 272 272 272 272 272 272 272 272 272 272 272 272 273 273 274 275 275 276 277 277 278 279 280 281 281 282 283 283 284 285 285 286 287 288 289 290 291 292 293 294 295 296 297 297 297 297 298 298 299 300 301 302 303 303 303 304 305 305 306 306 307 307 307 308 308 308 309 309 309 310 310 311 311 312 312 313 314 314
269 270 270 270 271 271 272 272 272 273 273 272 272 272 272 272 272 272 272 272 273 273 274 275 275 276 277 277 278 279 280 280 281 282 282 283 284 285 286 287 288 289 290 291 292 293 294 295 296 296 296 296 297 297 298 299 300 301 302 302 303 303 304 304 305 305 306 306 306 307 307 307 308 308 308 309 309 310 310 311 312 313 313 314 315
270 270 270 271 271 271 272 272 273 273 273 273 273 273 273 272 272 272 272 272 273 273 273 274 275 275 276 277 277 278 279 280 280 281 282 283 284 285 286 287 288 289 290 291 292 293 294 295 295 295 295 295 296 297 298 299 300 301 302 302 302 303 303 304 304 305 305 305 306 306 306 307 307 307 308 308 309 310 310 311 312 313 314 314 315
271 271 271 271 272 272 272 273 273 273 273 273 273 273 272 272 272 271 271 271 272 272 273 274 274 275 276 277 277 278 279 279 280 281 282 283 284 285 286 287 288 289 290 291 292 293 293 293 294 294 294 295 296 297 298 299 300 301 301 301 302 302 303 303 304 304 304 305 305 305 306 306 306 307 307 308 309 310 310 311 312 313 314 314 315
271 271 271 272 272 272 273 273 273 273 273 273 272 272 272 271 271 270 270 270 271 271 272 273 274 275 276 277 277 278 279 280 280 281 282 283 284 285 286 287 288 289 290 291 291 292 292 292 293 294 295 296 297 297 298 299 300 300 300 301 301 302 302 303 303 303 304 304 304 305 305 306 306 307 307 308 309 310 311 312 312 313 313 314 315
271 271 271 272 272 272 272 272 272 272 272 272 271 271 271 270 270 269 269 269 269 270 271 272 273 274 275 276 277 278 279 279 280 281 282 283 284 285 286 287 288 289 289 290 290 291 292 292 293 294 295 296 296 297 298 299 299 300 300 300 301 301 302 302 302 303 303 303 304 304 305 305 306 307 308 309 309 310 311 312 312 313 313 314 315
271 271 271 271 271 271 271 271 271 271 271 270 270 270 269 269 269 268 268 268 269 269 270 271 272 273 274 275 276 277 278 279 280 281 282 283 284 285 286 287 288 289 289 290 290 291 292 293 293 294 295 295 296 297 298 298 299 299 299 300 300 301 301 301 302 302 303 303 303 304 305 306 307 307 308 309 310 310 311 312 312 313 313 314 315
270 270 270 269 269 269 269 269 269 269 269 269 269 269 268 268 268 268 268 268 268 269 270 271 272 273 274 275 276 278 279 280 281 282 283 284 285 286 287 287 288 288 289 290 290 291 292 292 293 294 294 295 295 296 297 297 298 298 299 299 300 300 300 301 301 302 302 303 304 305 305 306 307 308 308 309 310 310 311 311 312 313 313 315 316
269 268 268 267 267 267 267 267 267 268 268 269 269 269 268 268 268 268 268 268 269 269 270 271 272 274 275 276 277 278 279 280 281 282 283 284 285 286 286 287 287 288 289 289 290 290 291 292 292 293 293 294 295 296 296 296 297 298 298 299 299 299 300 300 301 302 302 303 304 305 306 307 307 308 309 309 310 310 311 312 312 313 314 315 317
267 266 266 266 265 265 266 266 266 267 267 268 268 269 269 269 269 269 269 269 270 270 271 272 273 274 275 276 277 278 279 280 281 282 282 283 284 285 285 286 287 287 288 288 289 290 291 291 292 292 293 294 295 295 295 296 297 297 298 298 298 299 299 300 301 302 303 304 305 306 306 307 308 308 309 309 310 310 311 312 312 313 315 316 317
267 267 266 266 266 266 267 267 267 267 268 268 269 269 269 270 270 270 270 270 271 271 272 272 273 274 275 276 277 277 278 279 280 281 281 282 283 284 284 285 286 286 287 288 289 290 290 291 291 292 293 293 294 294 295 295 296 296 297 297 298 299 300 301 302 303 304 304 305 306 307 307 308 308 309 309 310 310 311 312 313 314 315 316 317
270 270 270 269 269 269 269 269 270 270 270 270 270 270 270 271 271 271 271 271 271 272 272 273 273 274 275 275 276 277 278 279 279 280 281 282 282 283 284 284 285 286 287 288 289 289 290 290 291 292 292 293 293 293 294 295 295 296 297 297 299 300 301 302 302 303 304 305 306 306 307 307 307 308 308 309 310 310 311 312 313 314 315 316 317
273 273 273 272 272 272 272 272 272 272 272 272 272 272 272 272 272 272 272 272 272 272 273 273 274 274 275 276 276 277 278 279 279 280 281 281 282 283 284 285 286 287 287 288 288 289 289 290 290 291 291 292 292 293 294 294 295 296 297 299 300 301 301 302 303 303 304 305 305 306 306 306 307 308 308 309 310 311 312 313 314 314 315 316 317
275 274 273 273 273 272 272 272 272 273 273 273 273 273 273 273 273 273 273 273 273 273 274 274 275 275 276 276 277 277 278 279 279 280 281 281 282 283 284 285 286 286 286 287 287 288 288 289 290 290 291 292 292 293 294 295 296 297 299 299 300 301 301 302 303 304 304 305 305 305 306 306 307 308 308 309 310 311 312 312 313 314 315 315 316
275 274 273 272 272 271 270 270 270 271 272 272 272 272 272 272 273 273 273 273 274 274 274 275 275 276 276 276 277 277 278 279 279 280 280 281 282 283 284 284 285 285 285 286 287 287 288 289 289 290 291 292 293 294 295 296 297 298 299 300 300 301 302 303 303 303 304 304 305 305 306 306 307 308 308 309 310 311 312 312 313 313 314 315 315
274 273 272 271 271 270 269 268 268 268 268 269 270 271 271 271 272 272 273 273 273 274 274 274 275 275 275 276 276 277 278 278 279 279 280 281 282 282 283 283 284 284 285 286 286 287 288 289 290 291 292 293 294 295 296 297 298 299 299 300 301 302 302 302 303 303 303 304 305 305 306 306 307 308 309 309 310 311 311 312 312 313 313 314 315
273 272 271 271 270 269 269 268 267 267 266 267 267 268 269 270 270 270 271 271 272 272 272 273 273 273 274 274 275 276 276 277 278 278 279 280 281 281 282 283 283 284 285 286 287 288 289 290 292 292 293 294 295 296 297 297 298 299 300 300 301 301 301 302 303 303 304 304 305 305 306 307 307 308 309 309 310 310 311 311 311 312 313 314 315
273 273 272 271 270 270 269 269 268 267 266 266 266 266 267 267 268 268 269 269 270 270 271 271 271 272 273 273 274 275 275 276 277 278 278 279 280 281 282 283 284 285 286 287 289 290 291 292 293 293 294 295 296 297 297 298 299 299 300 300 301 301 302 302 303 303 304 304 305 305 306 307 307 308 308 309 309 310 310 310 311 312 313 313 314
274 274 274 273 272 272 271 270 270 269 268 267 266 266 266 266 266 267 268 268 269 270 270 271 271 272 273 273 274 275 276 277 277 278 279 280 281 283 284 285 286 287 289 290 291 292 292 293 293 294 295 296 296 297 297 298 299 299 300 300 301 302 302 302 303 303 303 304 305 305 306 306 307 307 308 308 309 309 310 310 311 312 312 313 314
276 276 276 275 275 274 273 273 272 271 270 270 269 268 268 268 268 268 268 269 269 270 271 272 272 273 274 275 276 276 277 278 279 280 282 283 284 285 286 287 288 289 290 291 291 292 293 293 294 295 295 295 296 297 297 298 299 300 300 301 301 301 302 302 302 303 303 304 305 305 305 306 307 307 307 308 308 309 310 310 311 311 312 313 314
276 276 277 277 277 276 276 275 274 274 273 273 272 272 271 271 271 271 271 271 271 272 273 273 274 275 276 277 278 279 280 281 282 283 284 285 286 287 288 288 289 290 291 292 292 292 293 293 294 294 295 295 296 297 298 299 300 300 301 301 301 301 301 302 302 303 303 304 304 305 305 306 306 307 307 308 308 309 309 310 310 311 312 312 313
278 277 277 278 278 277 277 277 276 276 276 276 275 275 275 274 274 274 275 275 275 276 276 277 278 278 279 280 281 281 282 283 284 285 286 287 287 288 289 290 290 291 291 292 292 292 293 293 294 294 295 296 297 298 299 299 300 300 300 300 301 301 301 302 302 303 303 303 304 304 305 306 306 307 307 307 308 308 309 309 310 310 311 311 312
280 279 279 279 279 279 279 279 279 279 279 279 278 278 278 278 278 279 279 279 279 280 280 280 281 281 282 282 283 283 284 285 285 286 287 288 288 288 289 290 290 291 291 292 293 293 293 294 294 295 296 297 297 298 298 299 299 299 300 300 300 301 301 301 302 302 303 303 304 304 305 305 306 306 307 307 308 308 308 309 309 309 310 311 312
281 281 280 280 280 280 280 280 280 280 281 281 281 281 281 281 281 281 281 282 282 282 282 282 283 283 284 284 284 285 285 286 287 287 287 288 288 288 289 290 291 292 292 293 294 294 294 294 295 295 296 296 296 297 297 298 298 299 299 299 300 300 301 301 301 302 302 303 303 304 304 305 305 306 306 307 307 307 307 308 308 309 310 311 313
284 284 284 283 283 282 282 281 281 281 281 281 281 281 281 281 282 282 282 282 282 283 283 284 284 285 285 285 285 286 286 287 287 287 288 289 289 290 292 292 293 293 293 294 293 293 294 294 294 294 295 295 296 296 297 297 298 298 298 299 299 300 300 301 301 302 302 303 303 303 304 304 305 305 306 306 306 306 307 307 308 309 310 312 313
288 287 287 287 286 286 285 285 284 284 283 283 283 283 282 282 282 283 283 283 284 284 284 285 285 285 286 286 286 286 287 287 288 289 290 291 291 292 293 293 292 292 293 293 292 293 293 293 294 294 295 295 296 297 297 297 298 298 299 299 299 300 300 301 301 301 302 302 303 303 303 304 304 304 304 305 305 306 307 308 309 310 310 311 312
291 290 290 289 288 288 288 287 287 287 286 286 285 285 284 284 284 284 284 285 285 285 285 286 286 286 286 286 287 287 288 288 289 289 290 290 291 291 291 291 291 291 292 292 292 292 293 294 294 295 295 296 296 297 297 298 298 299 299 299 300 300 300 301 301 301 302 302 302 302 303 303 303 303 304 305 306 306 307 308 309 309 310 311 312
293 292 291 291 290 290 289 289 289 289 289 288 288 287 287 286 286 286 286 286 286 286 286 286 286 286 286 287 287 287 287 288 288 289 289 290 290 290 290 291 291 291 292 292 292 293 293 294 295 295 295 296 296 297 298 298 299 299 299 299 300 300 300 301 301 301 301 301 301 302 302 302 303 304 305 305 306 307 307 308 309 309 310 311 311
293 292 291 291 291 290 290 290 290 290 290 290 289 289 288 288 288 287 287 287 287 287 287 287 287 287 287 287 287 287 287 288 288 289 289 290 290 290 291 291 291 292 292 292 293 294 294 295 295 295 296 296 297 297 298 298 298 299 299 299 300 300 300 300 300 301 301 301 302 302 303 303 304 305 305 306 306 306 307 308 308 309 309 310 311
296 293 291 290 289 290 290 290 290 290 290 290 289 289 289 289 289 289 288 288 288 289 289 289 289 288 288 288 288 288 288 289 289 289 290 290 291 291 291 292 292 292 293 293 294 294 295 295 295 296 296 296 297 297 298 298 298 298 299 299 300 300 300 300 301 301 301 302 302 303 303 304 304 304 305 305 306 306 307 307 308 308 309 309 310
298 296 294 291 289 288 288 288 288 288 289 289 289 289 288 288 289 289 289 289 289 289 290 290 289 289 289 289 289 289 289 289 290 290 290 290 291 291 292 292 293 293 294 294 294 295 295 295 295 295 295 296 296 297 298 298 299 299 299 300 300 300 301 301 301 301 302 302 303 303 303 303 304 304 304 305 305 306 306 307 307 308 308 309 309
297 297 296 294 291 288 287 287 287 286 287 287 287 287 287 287 287 288 288 288 288 289 289 289 289 289 289 289 289 289 289 289 289 290 290 291 291 292 292 293 293 293 293 294 294 294 294 295 295 295 296 296 297 298 298 299 299 300 300 300 300 301 301 301 301 301 302 302 302 302 302 303 303 303 304 304 305 305 306 306 307 307 307 308 308
297 297 296 295 294 291 288 287 286 286 286 286 286 286 286 287 287 287 287 287 287 287 288 288 289 289 289 289 289 289 289 290 290 290 291 291 292 292 292 292 292 292 293 293 294 294 295 295 295 296 296 297 298 298 299 299 299 300 300 300 300 300 301 301 301 301 301 302 302 302 302 302 302 303 303 304 304 305 305 306 306 306 307 307 307
297 297 296 295 294 293 290 289 287 286 286 286 286 286 286 286 286 286 286 286 287 287 288 288 289 289 289 290 290 290 290 290 291 291 291 291 292 292 292 292 292 293 293 294 294 295 295 296 296 297 297 297 298 298 299 299 299 299 300 300 300 300 300 300 300 301 301 301 301 301 301 302 302 303 303 304 304 304 304 305 305 305 306 306 306
296 296 296 295 294 293 291 290 288 286 285 285 285 286 286 286 286 286 286 286 286 287 288 288 289 289 289 290 290 291 291 291 291 291 291 291 292 292 292 292 293 293 293 294 294 295 295 296 296 297 297 298 298 298 298 299 299 299 299 299 300 300 300 300 300 300 300 300 300 300 301 301 302 302 303 303 303 303 304 304 304 304 305 305 305
297 297 296 296 295 293 291 290 288 286 284 284 284 285 285 285 286 286 286 286 286 287 288 288 289 289 290 290 291 291 291 291 291 291 291 292 292 292 292 292 292 293 293 294 295 295 296 296 297 297 297 298 298 298 298 299 299 299 299 299 299 299 299 299 299 299 299 299 300 300 301 301 301 302 302 302 302 303 303 303 303 303 304 304 303
297 297 296 296 295 293 290 288 288 286 284 283 283 284 284 285 286 286 286 286 287 287 287 288 289 289 290 290 290 291 291 291 291 291 291 291 292 292 292 292 293 293 294 295 295 296 297 297 297 297 298 298 298 298 298 298 298 298 298 298 298 298 298 298 298 298 299 299 300 300 300 300 301 301 301 301 302 302 302 302 302 302 302 302 302
296 295 294 294 294 292 289 287 287 286 284 283 283 284 284 285 285 286 286 286 286 287 287 288 288 289 289 290 290 290 290 291 291 291 291 291 291 291 292 293 293 294 295 295 296 296 297 297 297 297 297 297 298 298 298 297 297 297 297 297 297 297 297 297 298 298 298 299 299 299 299 300 300 300 300 301 301 301 301 301 301 301 301 301 301
293 293 293 293 293 291 288 286 286 286 285 284 284 284 284 284 285 285 286 286 286 287 288 288 289 289 289 290 290 290 290 291 291 291 291 291 292 292 293 294 294 295 295 296 296 297 297 297 297 297 297 297 297 297 297 296 296 296 296 296 296 297 297 297 297 298 298 298 298 298 299 299 299 300 300 300 300 300 300 300 300 300 300 300 300
291 291 291 291 291 289 287 286 285 285 285 285 285 284 285 285 285 286 286 287 287 288 288 289 289 290 290 290 291 291 291 291 291 292 292 293 293 294 294 295 295 296 296 296 297 297 297 297 296 296 296 296 296 296 295 295 295 295 295 296 296 296 296 297 297 297 297 298 298 298 298 298 299 299 299 299 299 299 299 299 299 299 299 299 299
Height
10754 10754 10754 10753 10753 10753 10752 10753 10753 10753 10753 10753 10753 10752 10748 10747 10745 10743 10742 10741 10739 10736 10734 10732 10729 10726 10725 10724 10721 10717 10716 10715 10712 10708 10706 10704 10700 10696 10693 10689 10685 10681 10677 10673 10668 10664 10660 10655 10651 10646 10641 10636 10631 10626 10620 10614 10609 10604 10599 10594 10589 10584 10578 10573 10568 10560 10551 10544 10537 10530 10523 10519 10512 10503 10495 10486 10478 10470 10460 10452 10445 10436 10426 10418 10409
10747 10747 10746 10745 10745 10744 10744 10744 10744 10744 10744 10745 10745 10743 10740 10737 10736 10735 10733 10731 10729 10726 10725 10723 10720 10717 10715 10714 10712 10708 10706 10705 10703 10700 10697 10694 10690 10686 10683 10679 10676 10672 10667 10663 10659 10654 10650 10645 10641 10636 10631 10626 10620 10615 10609 10604 10598 10594 10589 10584 10580 10574 10569 10563 10558 10552 10544 10535 10528 10520 10513 10508 10502 10493 10484 10477 10469 10461 10452 10443 10435 10426 10415 10407 10400
10738 10739 10738 10737 10736 10735 10735 10735 10735 10735 10735 10735 10735 10733 10731 10729 10727 10726 10724 10722 10719 10717 10715 10713 10710 10708 10706 10704 10702 10699 10697 10695 10693 10690 10687 10684 10680 10676 10673 10669 10666 10662 10658 10653 10648 10644 10640 10635 10631 10626 10620 10615 10610 10604 10599 10593 10588 10583 10578 10574 10569 10564 10559 10553 10548 10542 10535 10527 10519 10511 10504 10498 10492 10484 10475 10468 10460 10453 10444 10434 10426 10417 10405 10396 10389
10729 10730 10729 10728 10727 10726 10725 10724 10724 10724 10724 10724 10724 10723 10722 10720 10718 10717 10715 10712 10710 10707 10705 10703 10701 10698 10696 10694 10692 10690 10687 10684 10682 10679 10676 10673 10670 10666 10663 10659 10656 10652 10647 10643 10638 10633 10629 10624 10620 10615 10609 10604 10599 10594 10588 10582 10577 10573 10567 10563 10559 10554 10548 10542 10537 10532 10526 10519 10510 10502 10495 10489 10482 10474 10467 10459 10451 10443 10434 10424 10415 10407 10396 10385 10378
10719 10719 10719 10719 10718 10716 10716 10714 10713 10713 10712 10713 10714 10713 10712 10710 10708 10708 10705 10702 10700 10697 10695 10693 10691 10688 10686 10683 10682 10681 10678 10674 10671 10669 10665 10662 10659 10656 10653 10649 10645 10641 10637 10632 10627 10623 10618 10613 10608 10604 10598 10593 10588 10583 10578 10572 10567 10562 10556 10552 10548 10543 10537 10531 10526 10520 10514 10508 10501 10493 10485 10478 10472 10465 10458 10451 10443 10435 10425 10414 10404 10397 10388 10376 10367
10708 10708 10708 10708 10708 10706 10705 10704 10703 10702 10701 10702 10702 10702 10701 10699 10698 10697 10695 10692 10690 10688 10686 10683 10681 10678 10676 10673 10670 10669 10667 10663 10661 10658 10655 10652 10649 10645 10642 10638 10635 10631 10626 10621 10616 10612 10607 10602 10598 10593 10587 10582 10577 10572 10567 10562 10557 10551 10546 10541 10537 10532 10526 10520 10515 10509 10502 10497 10491 10483 10475 10467 10461 10455 10448 10440 10433 10427 10421 10410 10397 10386 10377 10368 10359
10698 10697 10697 10698 10697 10696 10695 10694 10694 10692 10692 10691 10691 10690 10689 10688 10687 10686 10684 10682 10680 10677 10675 10673 10670 10667 10665 10663 10660 10657 10656 10653 10650 10648 10644 10641 10638 10634 10631 10628 10624 10620 10615 10610 10605 10600 10596 10591 10587 10582 10577 10572 10566 10561 10556 10551 10546 10541 10536 10530 10525 10520 10515 10509 10503 10497 10491 10485 10479 10471 10463 10456 10450 10444 10437 10429 10421 10415 10410 10404 10394 10381 10368 10358 10351
10686 10686 10687 10687 10686 10686 10685 10685 10684 10683 10682 10681 10679 10679 10678 10676 10675 10674 10673 10671 10669 10667 10665 10662 10660 10656 10654 10653 10649 10646 10644 10642 10639 10636 10633 10630 10627 10623 10620 10617 10613 10608 10603 10598 10594 10589 10585 10580 10576 10571 10566 10561 10555 10550 10545 10540 10535 10531 10525 10519 10514 10509 10503 10497 10491 10485 10479 10473 10466 10459 10451 10444 10439 10433 10426 10418 10410 10402 10395 10390 10384 10374 10364 10351 10341
10672 10673 10674 10675 10675 10675 10675 10674 10674 10672 10671 10670 10669 10668 10667 10665 10664 10662 10661 10659 10657 10655 10653 10651 10648 10646 10644 10642 10639 10636 10633 10631 10628 10624 10622 10619 10616 10613 10609 10605 10601 10596 10591 10587 10583 10578 10574 10569 10565 10560 10554 10549 10544 10539 10534 10529 10525 10520 10515 10509 10503 10497 10491 10485 10480 10474 10467 10461 10454 10447 10439 10432 10427 10421 10414 10407 10399 10392 10384 10377 10370 10361 10353 10343 10329
10659 10659 10660 10661 10662 10663 10664 10663 10663 10662 10661 10660 10659 10657 10656 10654 10653 10651 10649 10647 10646 10644 10641 10639 10637 10635 10633 10631 10629 10626 10622 10620 10616 10613 10611 10608 10604 10601 10597 10593 10588 10584 10580 10576 10571 10567 10563 10558 10554 10549 10543 10538 10532 10527 10522 10518 10514 10509 10504 10498 10492 10486 10479 10473 10468 10462 10455 10448 10441 10435 10429 10421 10415 10409 10402 10394 10387 10379 10371 10365 10358 10349 10341 10334 10322
10649 10648 10648 10648 10648 10650 10650 10651 10651 10651 10650 10649 10648 10647 10645 10643 10641 10640 10638 10635 10634 10632 10630 10628 10626 10624 10622 10619 10617 10614 10611 10608 10605 10602 10599 10596 10592 10589 10585 10581 10577 10573 10569 10565 10560 10556 10552 10547 10543 10538 10532 10526 10520 10516 10511 10507 10502 10498 10494 10488 10481 10474 10468 10462 10456 10450 10443 10436 10429 10423 10417 10410 10403 10396 10390 10382 10374 10366 10359 10351 10344 10336 10327 10320 10313
10637 10637 10636 10636 10636 10636 10636 10637 10638 10638 10638 10637 10636 10635 10634 10633 10630 10628 10626 10623 10622 10621 10619 10616 10615 10613 10611 10608 10605 10602 10599 10597 10594 10590 10587 10583 10580 10576 10573 10569 10566 10562 10558 10554 10549 10545 10541 10537 10532 10527 10521 10515 10509 10504 10500 10495 10491 10487 10482 10477 10469 10462 10456 10450 10444 10437 10431 10424 10416 10410 10405 10399 10391 10384 10377 10370 10362 10354 10347 10339 10331 10322 10312 10303 10296
10625 10624 10624 10624 10624 10624 10624 10624 10624 10625 10625 10624 10624 10623 10622 10621 10618 10616 10613 10611 10610 10609 10607 10604 10602 10600 10599 10596 10593 10591 10587 10584 10581 10577 10574 10571 10568 10565 10561 10558 10554 10550 10547 10543 10539 10535 10531 10526 10521 10515 10509 10503 10497 10492 10487 10483 10480 10475 10470 10464 10456 10449 10444 10438 10432 10425 10419 10412 10405 10398 10393 10386 10379 10372 10364 10357 10350 10343 10335 10327 10318 10309 10299 10288 10279
10611 10611 10610 10611 10611 10611 10611 10612 10612 10612 10611 10611 10610 10610 10609 10607 10605 10603 10601 10599 10597 10596 10594 10592 10589 10587 10586 10583 10581 10578 10574 10571 10568 10565 10562 10559 10556 10553 10549 10546 10543 10540 10537 10533 10529 10525 10520 10515 10510 10504 10497 10491 10486 10481 10476 10472 10468 10463 10458 10450 10443 10437 10432 10426 10420 10414 10407 10401 10394 10387 10380 10374 10367 10360 10352 10345 10338 10331 10323 10315 10307 10297 10286 10276 10265
10597 10596 10596 10597 10598 10598 10598 10599 10599 10599 10598 10597 10597 10596 10594 10592 10591 10590 10588 10586 10584 10583 10580 10578 10576 10574 10572 10570 10567 10564 10561 10558 10556 10553 10550 10547 10544 10541 10538 10535 10532 10530 10527 10523 10519 10514 10509 10504 10498 10491 10485 10479 10474 10469 10465 10460 10456 10451 10444 10437 10430 10424 10420 10414 10408 10402 10396 10389 10382 10375 10368 10362 10354 10347 10340 10332 10325 10317 10309 10301 10293 10284 10275 10265 10253
10583 10583 10583 10582 10583 10583 10583 10584 10584 10585 10584 10584 10583 10581 10579 10578 10577 10576 10575 10573 10571 10569 10567 10565 10563 10561 10559 10556 10553 10551 10548 10546 10544 10541 10538 10535 10532 10530 10527 10525 10522 10520 10517 10513 10508 10503 10497 10491 10485 10479 10473 10468 10463 10458 10453 10449 10445 10438 10430 10423 10418 10412 10407 10401 10395 10390 10384 10377 10370 10363 10356 10349 10341 10334 10326 10319 10311 10304 10296 10287 10279 10271 10263 10255 10245
10570 10570 10569 10569 10568 10568 10567 10567 10568 10568 10569 10568 10567 10566 10565 10564 10562 10561 10561 10559 10557 10555 10553 10551 10550 10548 10545 10543 10540 10538 10536 10534 10532 10529 10526 10524 10522 10519 10517 10515 10512 10509 10506 10501 10496 10490 10484 10479 10473 10468 10462 10457 10451 10446 10442 10438 10432 10425 10417 10411 10405 10400 10393 10388 10382 10377 10371 10364 10357 10350 10343 10335 10328 10320 10312 10305 10298 10291 10283 10276 10267 10259 10251 10245 10237
10556 10557 10556 10554 10553 10552 10551 10551 10551 10551 10551 10551 10551 10551 10550 10550 10548 10547 10546 10545 10543 10541 10539 10538 10536 10534 10532 10530 10528 10527 10525 10522 10520 10518 10515 10513 10511 10509 10506 10503 10501 10497 10493 10488 10482 10477 10472 10467 10462 10457 10451 10445 10439 10434 10430 10426 10419 10412 10405 10399 10392 10386 10380 10374 10369 10364 10358 10351 10344 10337 10330 10322 10314 10306 10298 10291 10283 10276 10270 10263 10255 10247 10240 10232 10226
10542 10542 10540 10539 10537 10536 10536 10535 10534 10534 10534 10535 10535 10536 10536 10535 10534 10533 10532 10530 10528 10527 10525 10524 10522 10521 10520 10519 10517 10515 10513 10511 10508 10506 10503 10501 10499 10497 10494 10491 10488 10484 10479 10475 10470 10465 10460 10455 10450 10445 10439 10433 10428 10424 10419 10413 10406 10400 10393 10387 10380 10373 10367 10361 10356 10350 10344 10338 10331 10324 10316 10308 10301 10293 10285 10277 10269 10262 10256 10250 10242 10235 10227 10220 10212
10525 10524 10523 10523 10522 10521 10521 10520 10519 10519 10519 10519 10520 10520 10520 10519 10519 10519 10518 10517 10515 10514 10513 10512 10511 10510 10508 10507 10505 10503 10500 10498 10496 10493 10491 10489 10487 10484 10481 10478 10475 10471 10467 10462 10457 10453 10448 10444 10438 10432 10426 10421 10417 10413 10407 10400 10395 10388 10382 10375 10368 10361 10355 10348 10342 10336 10330 10324 10317 10310 10302 10295 10287 10279 10271 10263 10256 10249 10242 10236 10229 10221 10214 10207 10200
10508 10507 10507 10507 10506 10506 10506 10506 10506 10506 10506 10506 10506 10506 10505 10505 10505 10505 10505 10504 10503 10502 10501 10500 10499 10498 10497 10495 10493 10491 10488 10486 10484 10481 10479 10477 10475 10472 10469 10466 10462 10458 10454 10449 10445 10441 10436 10431 10425 10419 10415 10410 10405 10400 10394 10388 10383 10377 10370 10363 10356 10349 10342 10336 10330 10323 10316 10310 10303 10296 10288 10280 10273 10266 10259 10251 10243 10236 10229 10223 10216 10208 10200 10194 10188
10493 10492 10492 10492 10492 10493 10493 10492 10493 10493 10493 10494 10494 10493 10493 10493 10493 10493 10492 10492 10491 10491 10490 10489 10488 10486 10485 10483 10481 10478 10475 10473 10471 10469 10467 10465 10462 10460 10457 10453 10449 10445 10441 10437 10433 10428 10423 10417 10412 10408 10403 10398 10393 10387 10382 10377 10372 10366 10359 10351 10344 10336 10330 10324 10317 10310 10303 10297 10290 10283 10275 10267 10261 10254 10247 10240 10232 10225 10218 10212 10204 10196 10188 10181 10175
10480 10480 10479 10479 10480 10481 10481 10481 10481 10480 10481 10481 10481 10481 10481 10480 10481 10480 10480 10479 10479 10478 10477 10476 10475 10474 10472 10470 10468 10465 10462 10461 10459 10457 10455 10452 10450 10447 10443 10440 10436 10432 10429 10424 10419 10414 10410 10405 10400 10396 10391 10385 10380 10374 10369 10365 10360 10354 10347 10339 10331 10324 10318 10311 10304 10298 10291 10285 10278 10271 10263 10256 10250 10243 10237 10229 10222 10214 10207 10200 10193 10186 10177 10169 10162
10470 10469 10468 10468 10469 10469 10470 10470 10469 10469 10469 10470 10470 10470 10469 10469 10469 10468 10468 10467 10467 10466 10465 10464 10462 10461 10460 10458 10455 10452 10450 10448 10446 10444 10442 10439 10436 10433 10430 10427 10424 10420 10415 10410 10405 10401 10397 10393 10388 10384 10378 10373 10367 10361 10357 10352 10348 10341 10334 10327 10319 10312 10306 10299 10292 10286 10279 10273 10266 10260 10253 10245 10239 10233 10226 10219 10212 10205 10196 10189 10182 10175 10166 10157 10149
10460 10459 10458 10458 10458 10458 10459 10459 10459 10459 10459 10459 10459 10459 10458 10458 10458 10457 10456 10456 10455 10454 10453 10452 10451 10449 10447 10444 10441 10439 10437 10435 10433 10430 10428 10425 10422 10420 10417 10415 10412 10407 10402 10397 10393 10389 10385 10381 10376 10371 10366 10360 10354 10348 10344 10340 10335 10329 10322 10314 10307 10301 10294 10287 10280 10274 10267 10261 10255 10249 10242 10235 10228 10222 10216 10209 10202 10194 10186 10178 10171 10164 10157 10148 10140
10450 10449 10449 10448 10448 10448 10449 10449 10449 10449 10449 10449 10449 10449 10448 10448 10447 10447 10446 10445 10444 10443 10442 10440 10438 10436 10434 10431 10428 10426 10425 10422 10419 10416 10414 10412 10410 10408 10406 10403 10399 10394 10389 10385 10381 10377 10373 10368 10363 10358 10352 10347 10341 10336 10331 10327 10322 10316 10309 10302 10296 10289 10282 10276 10269 10262 10256 10250 10245 10239 10232 10224 10217 10211 10204 10198 10190 10183 10176 10168 10160 10153 10147 10139 10132
10440 10440 10439 10439 10438 10439 10439 10439 10439 10440 10439 10439 10439 10439 10438 10438 10437 10436 10435 10433 10433 10431 10430 10428 10426 10423 10420 10418 10416 10414 10412 10409 10406 10402 10401 10400 10399 10396 10393 10390 10385 10381 10377 10373 10369 10365 10361 10356 10350 10345 10339 10333 10328 10323 10319 10314 10309 10304 10297 10291 10284 10278 10271 10265 10258 10251 10245 10239 10233 10227 10220 10213 10206 10199 10192 10185 10178 10171 10164 10157 10149 10142 10136 10129 10122
10431 10430 10430 10430 10429 10429 10429 10429 10429 10429 10429 10429 10429 10428 10427 10427 10426 10424 10423 10422 10421 10419 10417 10415 10413 10410 10408 10406 10404 10402 10399 10396 10392 10390 10389 10389 10386 10383 10381 10377 10373 10369 10364 10360 10356 10352 10348 10342 10337 10331 10325 10320 10316 10311 10306 10301 10297 10291 10285 10279 10273 10266 10260 10254 10248 10240 10234 10227 10221 10215 10208 10201 10194 10187 10180 10173 10166 10159 10152 10145 10138 10131 10124 10117 10110
10421 10421 10420 10420 10420 10420 10420 10420 10419 10419 10419 10418 10418 10417 10416 10416 10415 10413 10411 10410 10409 10407 10405 10403 10400 10397 10396 10394 10392 10389 10387 10384 10379 10378 10378 10376 10373 10371 10368 10364 10361 10356 10352 10348 10344 10339 10334 10328 10322 10317 10313 10308 10304 10298 10293 10289 10284 10279 10274 10268 10262 10256 10249 10242 10236 10229 10223 10216 10210 10203 10197 10190 10183 10176 10168 10161 10155 10148 10141 10134 10126 10119 10112 10104 10097
10412 10411 10411 10411 10410 10410 10410 10409 10409 10409 10408 10408 10407 10406 10405 10405 10403 10402 10400 10398 10397 10395 10393 10390 10388 10386 10384 10382 10379 10377 10375 10371 10367 10366 10365 10363 10360 10358 10355 10352 10348 10344 10339 10335 10331 10326 10320 10315 10310 10305 10301 10296 10292 10286 10281 10277 10273 10267 10262 10257 10251 10245 10238 10231 10223 10217 10211 10205 10198 10192 10185 10179 10172 10165 10158 10150 10143 10136 10129 10122 10114 10107 10100 10092 10085
10402 10402 10402 10401 10401 10400 10400 10399 10399 10398 10398 10397 10397 10396 10395 10394 10393 10391 10389 10387 10386 10384 10382 10379 10376 10374 10372 10370 10367 10365 10362 10358 10355 10354 10353 10350 10348 10346 10343 10339 10336 10331 10327 10323 10318 10312 10307 10303 10299 10294 10289 10285 10280 10275 10270 10266 10261 10255 10250 10245 10239 10233 10226 10219 10212 10206 10200 10193 10187 10180 10174 10167 10161 10154 10146 10139 10131 10124 10117 10110 10102 10095 10088 10080 10073
10394 10394 10393 10392 10392 10391 10390 10390 10389 10388 10387 10387 10386 10385 10384 10383 10382 10380 10378 10376 10374 10372 10370 10367 10365 10363 10360 10358 10355 10353 10351 10347 10344 10342 10341 10339 10336 10334 10330 10327 10324 10319 10314 10310 10305 10300 10296 10292 10287 10283 10278 10274 10269 10264 10259 10254 10249 10244 10238 10233 10227 10220 10213 10207 10200 10194 10188 10182 10175 10168 10162 10155 10149 10142 10135 10127 10119 10112 10105 10097 10090 10083 10076 10069 10062
10385 10385 10384 10383 10382 10381 10380 10380 10379 10378 10377 10376 10375 10375 10373 10372 10371 10369 10367 10365 10363 10361 10359 10356 10353 10351 10349 10346 10344 10342 10339 10337 10334 10332 10329 10327 10325 10322 10318 10315 10312 10307 10302 10298 10292 10287 10283 10280 10275 10271 10266 10263 10258 10252 10248 10243 10237 10232 10226 10220 10214 10208 10201 10194 10188 10182 10175 10170 10163 10157 10150 10143 10136 10130 10123 10115 10107 10100 10092 10085 10078 10072 10066 10059 10052
10377 10376 10375 10375 10374 10373 10372 10371 10370 10369 10368 10366 10365 10364 10363 10361 10360 10358 10356 10355 10352 10350 10348 10345 10343 10340 10338 10335 10333 10330 10328 10326 10324 10321 10318 10316 10313 10311 10308 10305 10301 10295 10290 10286 10281 10275 10270 10267 10263 10259 10255 10252 10246 10241 10237 10232 10226 10220 10215 10209 10202 10196 10189 10182 10176 10170 10163 10158 10151 10145 10138 10131 10124 10117 10110 10103 10095 10087 10080 10073 10066 10060 10054 10048 10041
10368 10367 10367 10366 10365 10365 10364 10363 10362 10360 10359 10357 10356 10354 10353 10352 10350 10348 10346 10344 10342 10339 10337 10334 10332 10330 10327 10324 10321 10318 10317 10316 10314 10311 10308 10304 10301 10299 10297 10294 10288 10282 10279 10275 10270 10263 10259 10255 10252 10248 10244 10241 10236 10230 10226 10221 10215 10209 10204 10197 10191 10185 10178 10171 10165 10158 10152 10146 10139 10133 10126 10119 10112 10105 10099 10091 10084 10076 10068 10061 10055 10048 10042 10036 10029
10359 10358 10357 10356 10356 10355 10354 10353 10353 10351 10350 10349 10347 10345 10344 10342 10340 10338 10336 10333 10331 10329 10327 10324 10321 10319 10316 10313 10309 10308 10307 10306 10304 10301 10297 10292 10288 10287 10285 10282 10275 10270 10267 10264 10259 10252 10247 10243 10239 10235 10232 10229 10224 10219 10214 10209 10203 10197 10191 10185 10179 10173 10166 10160 10153 10147 10140 10133 10127 10120 10113 10106 10099 10093 10086 10080 10072 10064 10056 10049 10042 10035 10028 10022 10016
10350 10349 10348 10347 10345 10344 10343 10342 10341 10341 10340 10338 10337 10335 10333 10331 10329 10327 10325 10323 10321 10318 10316 10313 10310 10308 10305 10301 10298 10297 10296 10295 10292 10289 10285 10280 10276 10274 10272 10268 10263 10258 10255 10251 10247 10242 10237 10232 10227 10223 10219 10216 10211 10206 10200 10195 10189 10183 10177 10171 10166 10160 10153 10147 10141 10134 10127 10120 10113 10107 10100 10093 10086 10080 10074 10067 10059 10051 10044 10037 10030 10022 10015 10009 10003
10341 10341 10339 10338 10336 10335 10333 10332 10331 10329 10328 10327 10325 10324 10322 10320 10318 10316 10314 10312 10309 10307 10305 10302 10299 10296 10293 10290 10287 10286 10285 10283 10280 10277 10273 10269 10265 10263 10260 10256 10251 10246 10242 10238 10233 10229 10225 10220 10214 10210 10206 10202 10198 10192 10187 10181 10175 10169 10163 10157 10151 10145 10139 10132 10126 10119 10112 10105 10099 10093 10087 10080 10073 10067 10061 10053 10045 10037 10030 10023 10017 10010 10003 9996 9990
10333 10332 10330 10329 10328 10326 10324 10322 10321 10319 10317 10316 10314 10313 10311 10309 10307 10305 10303 10301 10298 10296 10294 10291 10288 10285 10282 10279 10277 10275 10273 10271 10269 10265 10261 10257 10253 10250 10247 10244 10238 10233 10228 10223 10219 10215 10212 10207 10201 10196 10192 10188 10183 10178 10173 10167 10160 10154 10147 10141 10135 10129 10123 10116 10110 10104 10098 10091 10085 10079 10072 10065 10058 10051 10045 10038 10031 10023 10016 10009 10003 9997 9990 9984 9977
10325 10323 10321 10320 10318 10316 10315 10313 10311 10309 10307 10305 10303 10302 10300 10298 10296 10294 10292 10290 10287 10285 10283 10280 10277 10274 10271 10268 10266 10263 10261 10260 10257 10253 10249 10244 10240 10236 10233 10230 10225 10220 10214 10208 10204 10201 10197 10193 10187 10182 10176 10172 10168 10164 10158 10151 10145 10138 10131 10125 10119 10113 10107 10100 10094 10088 10081 10075 10069 10062 10055 10048 10042 10035 10029 10023 10016 10009 10002 9996 9989 9983 9977 9971 9965
10315 10313 10312 10310 10308 10307 10305 10303 10301 10299 10297 10295 10293 10291 10289 10287 10285 10283 10281 10279 10277 10274 10272 10269 10266 10262 10259 10257 10254 10251 10249 10246 10243 10239 10236 10232 10227 10224 10220 10216 10211 10205 10199 10194 10190 10186 10182 10177 10172 10166 10160 10156 10152 10148 10142 10135 10128 10121 10115 10109 10103 10096 10089 10083 10076 10070 10064 10058 10052 10045 10038 10032 10026 10020 10013 10007 10001 9994 9988 9981 9975 9969 9963 9957 9951
10304 10303 10302 10300 10298 10296 10294 10292 10291 10289 10286 10285 10283 10281 10278 10277 10275 10272 10270 10268 10265 10263 10260 10257 10254 10250 10247 10244 10241 10238 10236 10232 10228 10225 10222 10218 10214 10211 10207 10202 10196 10191 10185 10180 10175 10171 10166 10162 10156 10150 10143 10139 10135 10131 10124 10117 10110 10104 10098 10091 10085 10078 10072 10065 10058 10052 10047 10041 10035 10029 10022 10016 10011 10005 9998 9992 9986 9980 9974 9967 9961 9955 9949 9943 9937
10293 10291 10290 10288 10287 10285 10283 10281 10279 10277 10275 10273 10271 10269 10267 10265 10263 10260 10259 10256 10253 10251 10248 10245 10242 10239 10235 10231 10228 10226 10223 10219 10215 10212 10208 10204 10200 10197 10192 10187 10182 10177 10171 10166 10161 10155 10151 10146 10140 10133 10127 10122 10118 10113 10107 10100 10093 10087 10080 10074 10068 10061 10054 10047 10041 10035 10030 10025 10019 10012 10006 10001 9995 9989 9983 9977 9971 9965 9959 9952 9946 9940 9935 9929 9924
10281 10279 10278 10276 10274 10272 10270 10269 10267 10264 10262 10261 10258 10256 10255 10253 10250 10248 10246 10243 10241 10239 10236 10233 10230 10227 10223 10219 10216 10213 10209 10206 10202 10198 10194 10189 10185 10182 10177 10172 10168 10163 10157 10152 10146 10140 10134 10129 10122 10116 10110 10105 10100 10095 10089 10083 10076 10070 10063 10057 10051 10044 10037 10030 10024 10018 10014 10009 10002 9995 9990 9985 9979 9973 9967 9961 9955 9949 9943 9937 9931 9925 9920 9915 9910
10268 10267 10265 10263 10261 10259 10257 10255 10253 10251 10249 10247 10245 10243 10241 10239 10237 10235 10232 10230 10227 10225 10222 10219 10216 10213 10209 10206 10202 10198 10195 10191 10188 10184 10179 10174 10170 10166 10161 10156 10152 10147 10142 10136 10130 10124 10118 10112 10105 10099 10094 10088 10083 10078 10072 10065 10059 10053 10047 10041 10034 10027 10020 10013 10007 10002 9998 9992 9985 9979 9974 9968 9963 9957 9951 9945 9939 9933 9927 9921 9915 9910 9905 9900 9895
10255 10254 10252 10250 10248 10246 10243 10241 10239 10237 10235 10233 10232 10230 10227 10225 10223 10221 10218 10216 10214 10211 10208 10205 10202 10198 10195 10192 10188 10184 10181 10177 10173 10169 10164 10159 10154 10149 10144 10139 10135 10131 10126 10121 10115 10108 10102 10096 10089 10083 10077 10072 10067 10061 10055 10048 10042 10036 10030 10023 10016 10009 10002 9996 9990 9986 9980 9974 9967 9961 9957 9951 9946 9940 9934 9929 9923 9917 9912 9906 9900 9895 9890 9885 9880
10239 10238 10236 10235 10233 10231 10229 10226 10224 10222 10221 10219 10217 10215 10213 10211 10208 10206 10204 10201 10199 10196 10193 10190 10187 10184 10181 10177 10173 10170 10166 10162 10158 10154 10149 10144 10138 10133 10128 10122 10118 10114 10109 10104 10098 10092 10085 10079 10072 10066 10060 10054 10049 10044 10037 10031 10024 10019 10013 10006 9999 9992 9985 9979 9974 9968 9962 9956 9950 9944 9939 9934 9928 9923 9918 9912 9907 9902 9896 9890 9885 9880 9874 9869 9865
10223 10221 10220 10219 10217 10215 10214 10211 10209 10208 10206 10204 10202 10200 10198 10196 10193 10191 10188 10186 10183 10181 10178 10175 10172 10169 10165 10161 10158 10154 10150 10146 10142 10137 10133 10128 10123 10117 10111 10106 10100 10096 10092 10087 10081 10075 10069 10062 10055 10049 10043 10037 10032 10026 10020 10013 10006 10001 9995 9988 9981 9974 9968 9963 9957 9950 9944 9938 9933 9927 9922 9916 9911 9905 9901 9896 9891 9885 9880 9874 9869 9864 9859 9854 9849
10207 10206 10204 10203 10201 10200 10198 10196 10194 10193 10191 10189 10187 10185 10183 10180 10178 10176 10173 10171 10168 10165 10163 10159 10156 10153 10149 10146 10142 10138 10134 10130 10125 10120 10116 10111 10106 10100 10095 10090 10083 10078 10074 10069 10064 10058 10052 10045 10038 10032 10025 10020 10014 10008 10002 9995 9988 9982 9975 9969 9962 9956 9950 9944 9938 9931 9925 9920 9915 9909 9903 9898 9892 9887 9884 9879 9874 9869 9863 9858 9853 9848 9843 9838 9834
10191 10190 10188 10186 10185 10184 10182 10180 10179 10177 10175 10174 10172 10170 10167 10165 10162 10160 10157 10155 10152 10149 10146 10143 10140 10136 10132 10129 10125 10121 10116 10112 10108 10103 10098 10093 10088 10083 10078 10072 10066 10061 10056 10051 10045 10039 10033 10027 10020 10013 10007 10001 9996 9990 9983 9976 9969 9962 9955 9949 9943 9937 9931 9925 9918 9912 9907 9902 9896 9890 9884 9879 9874 9870 9866 9862 9857 9852 9847 9842 9837 9832 9828 9824 9820
10175 10173 10172 10170 10169 10168 10166 10164 10163 10161 10159 10157 10155 10153 10151 10148 10146 10143 10140 10138 10135 10132 10129 10125 10122 10118 10114 10110 10106 10102 10098 10094 10089 10084 10079 10074 10069 10065 10059 10054 10048 10044 10038 10033 10027 10021 10014 10008 10001 9994 9987 9981 9976 9970 9963 9956 9949 9942 9936 9930 9924 9917 9911 9905 9899 9893 9888 9883 9877 9871 9865 9860 9856 9852 9849 9845 9840 9836 9831 9826 9821 9817 9813 9809 9805